www.pogodaiklimat.ru

Погода и климат >> Архив погоды >> Великобритания >> Боулмер


ПОГОДА в Боулмере

  • Прогноз погоды в Боулмере
  • Монитор погоды в Боулмере

АРХИВ ПОГОДЫ в Боулмере

Время (UTC), дата Ветер
(напр.,м/с)
 
Видим.   Явления Облачность Т
(С)
Тd
(С)
f
(%)
Тe
(С)
Тes
(С)
Комфортность P
(гПа)
Po
(гПа)
Тmin
(С)
Tmax
(С)
R
(мм)
R24
(мм)
S
(см)
19 10.06 С 4 24 км н/о +12.2 +10.5 89 +10 +10 1020.8 1018.0
20 10.06 С 4 19 км н/о +11.9 +10.2 89 +10 +10 1021.2 1018.4
21 10.06 С 5 22 км н/о +11.2 +9.6 90 +9 +9 1021.4 1018.5
22 10.06 С 5 19 км н/о +10.6 +9.0 90 +8 +8 1021.5 1018.7
23 10.06 С 4 27 км н/о +10.3 +8.2 87 +8 +8 1021.5 1018.7
00 11.06 С 3 23 км н/о +10.0 +8.0 87 +8 +8 1021.6 1018.8
01 11.06 С 4 27 км н/о +9.9 +7.4 84 +7 +7 1021.5 1018.7
02 11.06 С 5 30 км н/о +10.0 +7.3 83 +7 +7 1021.3 1018.5
03 11.06 С 6 30 км н/о +10.0 +7.5 84 +7 +7 1021.2 1018.4
04 11.06 С 5 30 км н/о +9.7 +7.5 86 +6 +6 1021.4 1018.6
05 11.06 С 6 35 км н/о +10.1 +7.1 82 +7 +7 1021.5 1018.6
06 11.06 С 6 35 км н/о +10.4 +7.4 82 +7 +7 1021.7 1018.9 +9.6
07 11.06 С 6 19 км в посл. час дождь н/о +10.4 +7.8 84 +7 +7 1021.2 1018.4
08 11.06 С 6 35 км в посл. час дождь н/о +10.9 +7.3 78 +8 +8 1021.0 1018.2
09 11.06 С 8
{13}
30 км н/о +11.3 +7.7 78 +8 +8 1020.7 1017.9
10 11.06 С 9
{14}
30 км н/о +12.1 +8.4 78 +9 +9 1021.1 1018.3
11 11.06 С 7 35 км н/о +11.6 +7.0 73 +8 +8 1021.3 1018.5
12 11.06 С 7
{13}
30 км н/о +11.3 +7.8 79 +8 +8 1021.3 1018.5 0.0
13 11.06 С 6 30 км в посл. час дождь н/о +10.8 +7.8 82 +8 +8 1021.0 1018.2
14 11.06 С 7 35 км н/о +12.4 +8.8 79 +10 +10 1020.8 1018.0
15 11.06 С 7-12
{13}
35 км н/о +11.9 +8.5 80 +9 +9 1020.6 1017.8
16 11.06 С 6 35 км в посл. час дождь н/о +11.3 +8.0 80 +8 +8 1020.5 1017.7
17 11.06 С 6 29 км в посл. час дождь н/о +11.3 +8.6 83 +8 +8 1020.1 1017.3
18 11.06 С 7 30 км н/о +11.0 +8.2 83 +8 +8 1019.7 1016.9 +12.9 0.0
19 11.06 С 6 30 км н/о +10.9 +8.3 84 +8 +8 1019.8 1016.9
20 11.06 С 7 28 км н/о +10.8 +8.6 86 +7 +7 1019.7 1016.8
21 11.06 С 6 30 км н/о +10.6 +8.3 86 +7 +7 1019.6 1016.8
22 11.06 С 6 30 км н/о +10.6 +8.3 86 +7 +7 1019.2 1016.3
23 11.06 С 7 25 км слаб. ливневой дождь н/о +10.3 +8.2 87 +7 +7 1018.9 1016.1
00 12.06 С 8 12 км дождь н/о +9.9 +8.5 91 +6 +6 1018.2 1015.4 0.4
01 12.06 С 8
{13}
17 км дождь н/о +9.9 +8.9 93 +6 +6 1017.4 1014.5
02 12.06 СЗ 8-13
{13}
18 км слаб. дождь н/о +10.1 +9.1 94 +6 +6 1016.1 1013.3
03 12.06 С 8
{14}
15 км в посл. час дождь н/о +10.3 +9.0 92 +6 +6 1015.8 1013.0
04 12.06 С 8-13
{14}
9000 м дождь н/о +10.3 +9.2 93 +6 +6 1015.6 1012.7
05 12.06 С 8-14
{14}
9000 м слаб. морось н/о +10.4 +9.3 93 +6 +6 1015.2 1012.4
06 12.06 С 9-16
{16}
3100 м дождь н/о +10.2 +9.6 96 +6 +6 1014.7 1011.9 +9.8 2
07 12.06 С 9
{15}
4500 м слаб. дождь н/о +10.2 +9.8 97 +6 +6 1014.0 1011.2
08 12.06 С 9-14
{14}
7000 м слаб. дождь н/о +10.2 +9.9 98 +6 +6 1014.2 1011.4
09 12.06 С 10-15
{15}
9000 м дождь н/о +10.2 +9.9 98 +6 +6 1013.9 1011.1
10 12.06 С 9
{15}
5000 м слаб. дождь н/о +10.4 +10.1 98 +6 +6 1014.0 1011.2
11 12.06 С 8
{13}
4000 м дождь н/о +10.7 +10.5 99 +7 +7 1013.7 1010.9
12 12.06 С 8
{13}
2300 м дождь н/о +11.0 +10.8 99 +7 +7 1013.2 1010.4 2
13 12.06 С 7 2300 м слаб. морось н/о +11.2 +11.1 99 +8 +8 1012.7 1009.9
14 12.06 С 6 3200 м слаб. морось н/о +11.3 +11.2 99 +8 +8 1012.3 1009.5
15 12.06 С 7-13
{13}
5000 м в посл. час морось н/о +11.2 +11.1 99 +8 +8 1011.6 1008.8
16 12.06 С 7 600 м морось н/о +11.3 +11.3 100 +8 +8 1011.5 1008.8
17 12.06 С 6 300 м морось н/о +11.3 +11.3 100 +8 +8 1011.3 1008.5
18 12.06 С 6 1500 м дождь н/о +11.2 +11.2 100 +8 +8 1010.9 1008.1 +11.4 3
19 12.06 С 6 1200 м дождь н/о +11.1 +11.1 100 +8 +8 1010.7 1007.9
20 12.06 С 6 2700 м дождь н/о +11.0 +11.0 100 +8 +8 1010.4 1007.6
21 12.06 С 7 1600 м дождь н/о +10.8 +10.8 100 +7 +7 1010.1 1007.4
22 12.06 С 7 3500 м слаб. дождь н/о +10.8 +10.8 100 +7 +7 1009.7 1006.9
23 12.06 С 7
{13}
2700 м дождь н/о +10.8 +10.8 100 +7 +7 1009.5 1006.7
00 13.06 С 7 3700 м дождь н/о +10.4 +10.4 100 +7 +7 1008.6 1005.8 7
01 13.06 С 7 4600 м сильн. дождь н/о +10.2 +10.2 100 +6 +6 1007.4 1004.6
02 13.06 С 7
{13}
3700 м сильн. дождь н/о +10.2 +10.1 99 +6 +6 1006.3 1003.5
03 13.06 С 6-13
{13}
5000 м сильн. дождь н/о +10.0 +9.8 99 +6 +6 1005.6 1002.8
04 13.06 С 7
{13}
6000 м дождь н/о +9.8 +9.6 99 +6 +6 1005.0 1002.3
05 13.06 С 8-14
{14}
6000 м дождь н/о +9.6 +9.4 99 +5 +5 1004.7 1002.0
06 13.06 С 8-13
{13}
4400 м дождь н/о +9.3 +8.9 97 +5 +5 1004.4 1001.6 +9.3 23
07 13.06 С 8
{15}
3800 м сильн. дождь н/о +9.0 +8.6 97 +4 +4 1004.0 1001.2
08 13.06 С 8
{14}
6000 м дождь н/о +9.0 +8.5 97 +4 +4 1003.6 1000.8
09 13.06 СЗ 8
{14}
7000 м дождь н/о +8.7 +8.2 97 +4 +4 1003.5 1000.7
10 13.06 СЗ 8
{15}
11 км дождь н/о +8.7 +8.1 96 +4 +4 1003.1 1000.3
11 13.06 СЗ 8-13
{13}
18 км дождь н/о +8.6 +7.8 95 +4 +4 1002.9 1000.1
12 13.06 СЗ 8 12 км дождь н/о +8.4 +7.7 95 +4 +4 1002.7 999.9 9
13 13.06 СЗ 7 15 км дождь н/о +8.7 +8.0 95 +4 +4 1002.5 999.7
14 13.06 СЗ 7 29 км слаб. дождь н/о +8.6 +7.6 93 +4 +4 1002.4 999.6
15 13.06 СЗ 5 24 км слаб. дождь н/о +8.6 +7.4 92 +5 +5 1002.4 999.6
16 13.06 СЗ 6 30 км слаб. морось с дождем н/о +8.9 +7.3 90 +5 +5 1002.2 999.4
17 13.06 СЗ 5 13 км дождь н/о +9.1 +7.8 92 +6 +6 1002.1 999.4
18 13.06 З 4 13 км слаб. дождь н/о +9.2 +8.2 93 +6 +6 1002.4 999.6 +9.3 12
19 13.06 З 3 45 км слаб. дождь н/о +9.2 +7.8 91 +7 +7 1002.5 999.7
20 13.06 ЮЗ 2 45 км в посл. час дождь н/о +9.2 +8.1 93 +8 +8 1002.8 1000.0
21 13.06 Ю 2 28 км н/о +8.9 +8.3 96 +7 +7 1003.3 1000.6
22 13.06 Ю 2 40 км н/о +8.8 +8.3 97 +7 +7 1003.9 1001.1
23 13.06 Ю 4 45 км н/о +8.3 +7.7 96 +5 +5 1004.0 1001.2
00 14.06 Ю 3 40 км н/о +8.2 +7.6 96 +5 +5 1004.2 1001.4 0.2
01 14.06 Ю 3 35 км н/о +8.1 +7.7 97 +5 +5 1004.1 1001.3
02 14.06 Ю 3 14 км н/о +8.3 +8.1 99 +6 +6 1004.0 1001.3
03 14.06 Ю 3 7000 м в посл. час дождь н/о +8.4 +8.2 99 +6 +6 1004.0 1001.2
04 14.06 Ю 3 11 км н/о +7.7 +7.5 99 +5 +5 1004.0 1001.2
05 14.06 Ю 3 11 км н/о +8.3 +8.1 99 +6 +6 1004.5 1001.7
06 14.06 Ю 3 22 км н/о +9.1 +8.6 97 +7 +7 1005.1 1002.3 +7.7 0.2
07 14.06 Ю 5 30 км н/о +10.4 +8.2 86 +8 +8 1005.4 1002.6
08 14.06 Ю 4 28 км н/о +10.3 +8.2 87 +8 +8 1006.0 1003.2
09 14.06 ЮВ 5 18 км слаб. дождь н/о +10.6 +9.4 92 +8 +8 1006.4 1003.6
10 14.06 ЮВ 5 14 км слаб. дождь н/о +10.6 +9.3 92 +8 +8 1006.6 1003.8
11 14.06 ЮВ 3 12 км дождь н/о +10.1 +8.7 91 +8 +8 1006.6 1003.8
12 14.06 ЮВ 3 30 км в посл. час дождь н/о +10.0 +8.5 90 +8 +8 1007.0 1004.2 0.8
13 14.06 В 3 30 км н/о +11.0 +8.8 86 +9 +9 1007.0 1004.2
14 14.06 В 4 30 км н/о +10.7 +8.8 88 +8 +8 1007.4 1004.6
15 14.06 ЮВ 4 30 км н/о +12.6 +10.9 89 +11 +11 1007.5 1004.7
16 14.06 ЮВ 5 21 км н/о +12.8 +10.9 88 +11 +11 1007.6 1004.9
17 14.06 ЮВ 4 25 км н/о +12.6 +10.7 88 +11 +11 1008.2 1005.5
18 14.06 ЮВ 4 30 км н/о +14.2 +10.1 76 +13 +13 1008.4 1005.7 +14.3 0.8
19 14.06 ЮВ 3 30 км н/о +12.2 +9.7 85 +11 +11 1008.7 1005.9
20 14.06 ЮВ 3 30 км н/о +12.0 +9.7 86 +10 +10 1009.0 1006.2
21 14.06 Ю 3 30 км н/о +11.6 +9.2 85 +10 +10 1009.5 1006.7
22 14.06 Ю 3 24 км н/о +10.5 +9.5 94 +9 +9 1009.8 1007.0
23 14.06 ЮВ 2 18 км н/о +10.7 +9.8 94 +9 +9 1009.8 1007.0
00 15.06 В 2 16 км н/о +10.7 +10.3 97 +10 +10 1009.7 1006.9
01 15.06 ЮВ 2 21 км н/о +11.1 +10.7 97 +10 +10 1009.7 1006.9
02 15.06 ЮЗ 1 8000 м дымка н/о +10.6 +10.3 98 +10 +10 1009.4 1006.7
03 15.06 Ю 1 1000 м дымка н/о +10.3 +10.1 99 +10 +10 1009.1 1006.3
04 15.06 Ю 2 100 м туман н/о +9.6 +9.5 99 +8 +8 1008.9 1006.1
05 15.06 Ю 1 400 м туман н/о +10.3 +10.3 100 +10 +10 1008.9 1006.1
06 15.06 ЮВ 3 10 км в посл. час туман н/о +11.3 +11.3 100 +10 +10 1009.2 1006.4 +9.4
07 15.06 ЮВ 3 8000 м дым н/о +12.1 +10.9 92 +10 +10 1009.5 1006.7
08 15.06 ЮВ 4 9000 м дым н/о +12.7 +11.4 92 +11 +11 1009.5 1006.7
09 15.06 ЮВ 4 9000 м н/о +13.1 +11.2 88 +11 +11 1009.6 1006.9
10 15.06 ЮВ 5 12 км н/о +14.1 +12.2 88 +12 +12 1009.6 1006.9
11 15.06 ЮВ 6 22 км н/о +14.4 +11.9 85 +13 +13 1009.6 1006.8
12 15.06 ЮВ 8 24 км н/о +15.0 +11.6 80 +13 +13 1009.5 1006.8
13 15.06 ЮВ 6 20 км н/о +14.5 +11.6 83 +13 +13 1009.5 1006.8
14 15.06 ЮВ 5 16 км н/о +12.9 +10.7 86 +11 +11 1009.7 1006.9
15 15.06 ЮВ 6 18 км н/о +14.2 +11.7 85 +12 +12 1009.4 1006.6
16 15.06 ЮВ 5 21 км н/о +13.4 +11.2 87 +11 +11 1009.3 1006.5
17 15.06 Ю 4 9000 м слаб. ливневой дождь н/о +12.3 +11.1 92 +10 +10 1009.2 1006.5
18 15.06 ЮЗ 2 9000 м дождь н/о +12.5 +11.8 95 +11 +11 1009.4 1006.6 +15.1 1
19 15.06 ЮВ 2 18 км слаб. дождь н/о +12.3 +11.5 95 +11 +11 1009.4 1006.6
20 15.06 Ю 2 14 км в посл. час дождь н/о +11.9 +11.3 96 +11 +11 1009.2 1006.4
21 15.06 Ю 4 15 км н/о +11.4 +10.9 97 +9 +9 1009.7 1006.9
22 15.06 Ю 3 21 км н/о +11.0 +10.4 96 +9 +9 1009.9 1007.1
23 15.06 ЮЗ 3 12 км н/о +9.9 +9.4 97 +8 +8 1009.9 1007.1
00 16.06 ЮЗ 4 22 км н/о +9.3 +8.8 97 +6 +6 1010.2 1007.4 0.6
01 16.06 ЮЗ 2 26 км н/о +7.5 +6.3 92 +5 +5 1010.3 1007.5
02 16.06 ЮЗ 4 30 км н/о +6.6 +5.2 91 +3 +3 1010.4 1007.5
03 16.06 ЮЗ 3 30 км н/о +5.4 +4.6 95 +2 +2 1010.4 1007.5
04 16.06 Ю 3 22 км н/о +6.5 +5.1 91 +4 +4 1010.2 1007.4
05 16.06 Ю 2 28 км н/о +7.0 +5.6 91 +5 +5 1010.5 1007.6
06 16.06 Ю 3 30 км н/о +8.9 +6.9 87 +6 +6 1010.7 1007.9 +5.4 0.6
07 16.06 Ю 4 30 км н/о +10.9 +8.6 86 +8 +8 1010.7 1007.9
08 16.06 Ю 5 30 км н/о +12.9 +9.1 78 +11 +11 1010.7 1008.0
09 16.06 Ю 4 30 км н/о +14.1 +9.6 74 +13 +13 1010.8 1008.1
10 16.06 Ю 6 30 км н/о +15.7 +9.3 66 +14 +14 1010.9 1008.1
11 16.06 Ю 5 30 км н/о +15.0 +7.7 62 +14 +14 1010.9 1008.2
12 16.06 Ю 6 29 км н/о +14.9 +8.4 65 +13 +13 1011.1 1008.3
13 16.06 Ю 5 27 км н/о +14.7 +8.6 67 +13 +13 1011.3 1008.5
14 16.06 ЮВ 6 21 км в посл. час дождь н/о +14.1 +11.2 83 +12 +12 1011.1 1008.4
15 16.06 ЮВ 7 22 км н/о +14.4 +11.4 82 +12 +12 1010.8 1008.1
16 16.06 ЮВ 5 22 км н/о +14.3 +11.5 83 +13 +13 1010.5 1007.7
17 16.06 Ю 3 30 км в посл. час дождь н/о +14.8 +11.3 80 +14 +14 1010.6 1007.9
18 16.06 ЮВ 5 22 км н/о +13.3 +10.5 83 +11 +11 1010.7 1008.0 +16.8 0.2
19 16.06 Ю 4 16 км н/о +12.3 +10.9 91 +10 +10 1010.4 1007.6
20 16.06 Ю 4 22 км н/о +13.0 +10.6 85 +11 +11 1010.2 1007.4
21 16.06 Ю 3 22 км слаб. ливневой дождь н/о +12.4 +10.3 87 +11 +11 1010.2 1007.4
22 16.06 ЮВ 4 10 км морось с дождем н/о +12.6 +10.8 89 +11 +11 1009.7 1006.9
23 16.06 Ю 4 18 км дождь н/о +12.4 +11.5 94 +10 +10 1009.2 1006.4
00 17.06 Ю 5 29 км в посл. час дождь н/о +13.1 +12.1 94 +11 +11 1009.0 1006.2 2
01 17.06 Ю 4 21 км н/о +12.4 +11.6 95 +10 +10 1008.9 1006.2
02 17.06 Ю 6 30 км н/о +12.7 +11.6 93 +10 +10 1008.8 1006.0
03 17.06 Ю 4 29 км н/о +11.7 +10.8 94 +10 +10 1009.0 1006.2
04 17.06 Ю 5 29 км н/о +11.1 +9.6 90 +8 +8 1009.2 1006.4
05 17.06 Ю 2 23 км н/о +10.2 +8.8 91 +9 +9 1009.6 1006.8
06 17.06 Ю 3 22 км н/о +11.7 +10.0 89 +10 +10 1010.0 1007.3 +10.0 2
07 17.06 Ю 4 23 км н/о +14.3 +12.1 87 +13 +13 1010.4 1007.6
08 17.06 Ю 6 24 км н/о +15.0 +10.8 76 +13 +13 1010.3 1007.5
09 17.06 Ю 5 25 км н/о +15.6 +10.2 70 +14 +14 1010.6 1007.8
10 17.06 Ю 7 25 км н/о +17.2 +10.4 64 +16 +16 1010.5 1007.8
11 17.06 Ю 7 24 км н/о +16.5 +9.8 65 +15 +15 1010.6 1007.9
12 17.06 Ю 8
{13}
25 км н/о +17.6 +9.7 60 +17 +17 1010.6 1007.9
13 17.06 Ю 9
{13}
25 км н/о +18.5 +9.0 54 +18 +18 1010.7 1008.0
14 17.06 ЮЗ 9
{14}
27 км н/о +18.4 +8.8 54 +18 +18 1010.9 1008.1
15 17.06 Ю 9-14
{15}
24 км н/о +18.2 +8.2 52 +17 +17 1010.7 1008.0
17 17.06 Ю 8
{14}
26 км н/о +17.6 +8.6 56 +17 +17 1010.6 1007.9
18 17.06 ЮЗ 7
{13}
24 км н/о +17.4 +8.9 57 +16 +16 1010.7 1008.0 +19.3

 

Местоположение метеостанции Боулмер (Великобритания): широта 55.42 долгота -1.60 высота над уровнем моря 27 м.

В архиве по умолчанию представлена погода в Боулмере за последнюю неделю. Архивные данные за месяц целиком и за предыдущие месяцы, начиная с января 2011 года, Вы можете получить, выбрав интересующий диапазон дат из раскрывающегося списка и нажав кнопку "Ввод!".


*Определитесь, кто Вы:
робот инопланетянин человек

Внимание! Время в таблицах - всемирное. Для получения местного времени необходимо прибавить поправку, которая равна 0 ч.

Смотрите также архив погоды в соседних городах и на ближайших метеорологических станциях:

Погода в Лагере Redesdale (Великобритания) (46 км)
Погода в Альбермарле (Великобритания) (48 км)
Погода в Чартерхолле (Великобритания) (58 км)
Погода в Спадедэме (Великобритания) (73 км)
Погода в Грэйт Дан Фелле (Великобритания) (99 км)
Погода в Эскдейлмьюире (Великобритания) (102 км)
Погода в Карлайле (Великобритания) (103 км)
Погода в Лофтусе (Великобритания) (105 км)
Погода в Варкопе (Великобритания) (108 км)
Погода в Шапе (Великобритания) (123 км)

Пояснения к столбцам:

Ветер - указаны скорость ветра в м/с - средняя за 10 мин, порывы в срок и между сроками (в фигурных скобках) и направление, откуда дует ветер: С - северный, СВ - северо-восточный, В - восточный, ЮВ - юго-восточный, Ю - южный, ЮЗ - юго-западный, З - западный, СЗ - северо-западный.
Видимость - горизонтальная дальность видимости в метрах или километрах. При видимости от 1 до 10 км при отсутствии осадков обычно наблюдается дымка, при ухудшении видимости до 1 км и менее - туман. В сухую погоду видимость может ухудшаться дымом, пылью или мглою.
Явления - указаны атмосферные явления, наблюдавшиеся в срок или в последний час перед сроком; фигурными скобками обозначены явления, наблюдавшиеся между сроками (за 1-3 часа до срока); квадратными скобками обозначены град или гололедные отложения с указанием их диаметра в мм.
Облачность - указаны через наклонную черту общая и нижняя облачность в баллах и высота нижней границы облаков в метрах; квадратными скобками обозначены формы облаков: Ci - перистые, Cs - перисто-слоистые, Cc - перисто-кучевые, Ac - высококучевые, As - высокослоистые, Sc - слоисто-кучевые, Ns - слоисто-дождевые, Cu - кучевые, Cb - кучево-дождевые. Подробнее классификацию облаков см. в Атласе облаков (PDF).
T - Температура воздуха - температура, измеренная на высоте 2 м над землей.
Td - Температура точки росы - температура, при понижении до которой содержащийся в воздухе водяной пар достигнет насыщения.
f - Относительная влажность воздуха - влажноcть воздуха, измеренная на высоте 2 м над землей.
Te - Эффективная температура - температура, которую ощущает одетый по сезону человек в тени. Характеристика душности погоды. При расчете учитывается влияние влажности воздуха и скорости ветра на теплоощущения человека.
Tes - Эффективная температура на солнце - температура, которую ощущает человек, с поправкой на солнечный нагрев. Характеристика знойности погоды. Зависит от высоты солнца над горизонтом, облачности и скорости ветра. Ночью, в пасмурную погоду, а также при ветре 12 м/с и более поправка равна нулю.
P - Атмосферное давление - приведенное к уровню моря атмосферное давление.
Po - Атмосферное давление - измеренное на уровне метеостанции атмосферное давление.
Tmin - Минимальная температура - минимум температуры воздуха на высоте 2 м над землей.
Tmax - Максимальная температура - максимум температуры воздуха на высоте 2 м над землей.
R - Количество осадков - Количество выпавших осадков за период времени, мм. При наведении курсора мыши на число - период времени, за который выпало указанное количество осадков.
R24 - Количество осадков - Количество выпавших осадков за 24 часа, мм.
S - Снежный покров - Высота снежного покрова, см. При наведении курсора мыши на число - состояние снежного покрова и степень покрытия местности в баллах.